Location: River House Observatory
(37.8577°N, 76.3548°W)
Time: 21:59:37
(UTC-05:00)

Hubble Space Telescope - Pass Details

Date: 28 January 2018
Orbit: 537 x 541 km, 28.5° (Epoch: 22 February)

Event Time Altitude Azimuth Distance (km) Brightness Sun altitude
Rises 18:00:47 0° 243° (WSW) 2,669 6.4 -7.6°
Reaches altitude 10° 18:03:26 10° 227° (SW) 1,778 4.6 -8.1°
Maximum altitude 18:06:35 21° 177° (S) 1,211 2.7 -8.7°
Drops below altitude 10° 18:09:46 10° 126° (SE) 1,779 3.1 -9.3°
Enters shadow 18:11:00 - 117° (ESE) 2,179 3.4 -9.5°
